Content
SEND FEEDBACK

Daily
Averages
Monthly
Summary
United States of America

EVADALE, TEXAS


Home > North America > United States > Texas
Elevation: 4 feet     Latitude: 30 20N     Longitude: 094 05W

WEATHER
 
SELECT A DAY
Number of Records: 68,656;   Date Range: 3/9/11 - 7/24/14
 
SHARE

PRINT THIS DATA

[ ← Previous Day ]
WEATHER ALMANAC - SEPTEMBER 28, 2013
[ Next Day → ]
[ °C ]   °F
Weather ElementAverageHighLow
Temperature80.5 °F89.4 °F (1:15 pm)72.9 °F (5:35 am)
Dewpoint70.9 °F74.7 °F (11:55 pm)68 °F (1:35 pm)
Humidity74.4 %98 % (6:55 am)49 % (1:15 pm)
Barometer29.97 in30.02 in (10:15 am)29.94 in (12:35 am)
Wind Speed5.9 mph11.5 mph (10:55 am)
Wind Gust18.4 mph (12:15 pm)
Weather ElementAverage
Visibility10 mi
Wind DirectionESE (129 °)

Weather ElementTotal
Precipitation---
Cooling Degree Days16.2 (Base 65)
Growing Degree Days31.2 (Base 50)
Averaged from 71 records on September 28, 2013
WEATHER CONDITIONS BREAKOUT
WIND DIRECTION BREAKOUT
WEATHER BY HOUR - SEPTEMBER 28, 2013
[ °C ]   °F
Local TimeTemperatureDewpointHumidityBarometerVisibilityWind DirectionWind SpeedGust SpeedPrecipitationEventsConditions
12:35 AM73.6 °F71.6 °F93 %29.94 in10.0 miESE (120°)4.6 mphClear
12:55 AM73.6 °F71.6 °F93 %29.94 in10.0 miSE (140°)4.6 mphClear
1:15 AM73.4 °F71.8 °F95 %29.95 in10.0 miCalmClear
1:35 AM73.4 °F71.8 °F95 %29.95 in10.0 miSSE (150°)3.5 mphClear
1:55 AM73.4 °F72.0 °F95 %29.95 in10.0 miCalmClear
2:15 AM74.1 °F71.4 °F91 %29.95 in10.0 miSSE (150°)4.6 mphClear
2:35 AM74.8 °F69.8 °F84 %29.94 in10.0 miSSE (150°)5.8 mphClear
2:55 AM74.8 °F69.8 °F84 %29.94 in10.0 miSSE (150°)4.6 mphClear
3:15 AM74.7 °F69.8 °F85 %29.94 in10.0 miSSE (150°)4.6 mphClear
3:35 AM74.8 °F69.8 °F84 %29.94 in10.0 miSE (140°)5.8 mphClear
3:55 AM74.8 °F69.8 °F84 %29.94 in10.0 miSSE (150°)3.5 mphClear
4:15 AM74.3 °F70.0 °F86 %29.94 in10.0 miSE (140°)4.6 mphClear
4:35 AM73.8 °F71.1 °F91 %29.94 in10.0 miSE (130°)3.5 mphClear
4:55 AM73.4 °F71.4 °F93 %29.94 in10.0 miSE (130°)4.6 mphClear
5:15 AM73.4 °F71.6 °F94 %29.94 in10.0 miESE (120°)3.5 mphClear
5:35 AM72.9 °F71.8 °F96 %29.95 in10.0 miESE (120°)4.6 mphClear
5:55 AM73.2 °F72.3 °F97 %29.95 in10.0 miSE (130°)3.5 mphClear
6:15 AM73.4 °F72.5 °F97 %29.96 in10.0 miSE (130°)4.6 mphClear
6:35 AM73.4 °F72.5 °F97 %29.96 in10.0 miSE (130°)3.5 mphClear
6:55 AM73.0 °F72.5 °F98 %29.97 in10.0 miESE (120°)4.6 mphScattered Clouds
7:15 AM73.4 °F72.7 °F98 %29.98 in10.0 miCalmMostly Cloudy
7:35 AM74.3 °F73.4 °F97 %29.98 in10.0 miCalmMostly Cloudy
7:55 AM76.5 °F73.9 °F92 %29.99 in10.0 miCalmOvercast
8:15 AM77.5 °F72.9 °F85 %29.99 in10.0 miCalmOvercast
8:35 AM80.1 °F72.5 °F78 %30.00 in10.0 miSouth (170°)3.5 mphMostly Cloudy
8:55 AM82.0 °F72.5 °F73 %30.00 in10.0 miSE (140°)6.9 mphScattered Clouds
9:15 AM83.3 °F72.5 °F70 %30.00 in10.0 miSSE (160°)4.6 mphClear
9:35 AM84.7 °F72.1 °F66 %30.01 in10.0 miSSE (150°)9.2 mphClear
9:55 AM83.5 °F72.3 °F69 %30.01 in10.0 miSouth (170°)6.9 mphScattered Clouds
10:15 AM84.4 °F71.4 °F65 %30.02 in10.0 miSSE (160°)9.2 mphScattered Clouds
10:35 AM85.5 °F71.2 °F62 %30.02 in10.0 miSouth (170°)8.1 mphScattered Clouds
10:55 AM86.9 °F70.2 °F57 %30.02 in10.0 miSE (140°)11.5 mphOvercast
11:15 AM86.5 °F69.8 °F57 %30.02 in10.0 miSouth (170°)9.2 mphOvercast
11:35 AM87.8 °F69.1 °F54 %30.01 in10.0 miSSE (160°)9.2 mphMostly Cloudy
11:55 AM88.0 °F69.3 °F54 %30.01 in10.0 miSouth (180°)8.1 mphScattered Clouds
12:15 PM87.6 °F69.4 °F55 %30.01 in10.0 miSE (130°)10.4 mph18.4 mphScattered Clouds
12:35 PM88.3 °F68.2 °F51 %30.00 in10.0 miSSE (160°)10.4 mphScattered Clouds
12:55 PM88.9 °F68.4 °F51 %29.99 in10.0 miSE (140°)10.4 mphScattered Clouds
1:15 PM89.4 °F68.2 °F49 %30.00 in10.0 miSSE (150°)8.1 mphScattered Clouds
1:35 PM88.3 °F68.0 °F51 %29.99 in10.0 miSSE (160°)10.4 mphMostly Cloudy
1:55 PM88.7 °F68.4 °F51 %29.98 in10.0 miSouth (170°)8.1 mphMostly Cloudy
2:15 PM87.8 °F69.6 °F55 %29.97 in10.0 miSSE (160°)5.8 mphOvercast
2:35 PM88.2 °F69.6 °F54 %29.97 in10.0 miSSE (150°)10.4 mphOvercast
2:55 PM87.1 °F68.7 °F54 %29.96 in10.0 miSE (130°)9.2 mphOvercast
3:15 PM88.5 °F69.4 °F53 %29.95 in10.0 miSouth (170°)11.5 mphMostly Cloudy
3:35 PM86.9 °F69.8 °F57 %29.95 in10.0 miSSE (150°)6.9 mphOvercast
3:55 PM87.1 °F70.2 °F57 %29.96 in10.0 miSouth (180°)8.1 mphOvercast
4:15 PM87.8 °F70.3 °F56 %29.95 in10.0 miSSE (160°)9.2 mphMostly Cloudy
4:35 PM86.0 °F70.0 °F59 %29.95 in10.0 miSouth (170°)9.2 mphScattered Clouds
4:55 PM86.9 °F69.6 °F56 %29.95 in10.0 miSSE (160°)8.1 mphMostly Cloudy
5:15 PM85.1 °F70.0 °F60 %29.94 in10.0 miSE (140°)10.4 mphOvercast
5:35 PM84.6 °F70.5 °F63 %29.94 in10.0 miSE (140°)10.4 mphOvercast
5:55 PM83.8 °F70.5 °F64 %29.94 in10.0 miSouth (170°)10.4 mphOvercast
6:15 PM82.8 °F70.7 °F67 %29.95 in10.0 miSouth (170°)6.9 mphOvercast
6:35 PM82.4 °F70.3 °F67 %29.96 in10.0 miSouth (170°)6.9 mphOvercast
6:55 PM81.9 °F70.9 °F69 %29.97 in10.0 miSouth (170°)5.8 mphOvercast
7:15 PM81.5 °F71.1 °F70 %29.97 in10.0 miSouth (180°)5.8 mphOvercast
7:35 PM79.7 °F72.7 °F79 %29.98 in10.0 miCalmRainLight Rain
7:55 PM79.9 °F72.7 °F79 %29.98 in10.0 miCalmOvercast
8:15 PM79.9 °F72.7 °F79 %29.99 in10.0 miSSE (150°)3.5 mphOvercast
8:35 PM79.9 °F72.7 °F79 %30.00 in10.0 miSouth (190°)4.6 mphOvercast
8:55 PM78.6 °F71.6 °F79 %30.00 in10.0 miSouth (170°)8.1 mphOvercast
9:15 PM77.5 °F68.2 °F73 %30.01 in10.0 miSE (140°)8.1 mphOvercast
9:35 PM77.9 °F68.2 °F72 %30.01 in10.0 miSSE (150°)5.8 mphMostly Cloudy
9:55 PM78.8 °F68.9 °F72 %30.00 in10.0 miSE (140°)6.9 mphOvercast
10:15 PM78.6 °F70.9 °F77 %30.00 in10.0 miSE (140°)5.8 mphMostly Cloudy
10:35 PM78.8 °F72.0 °F79 %30.00 in10.0 miSE (130°)5.8 mphScattered Clouds
10:55 PM79.3 °F72.5 °F79 %30.01 in10.0 miESE (120°)4.6 mphMostly Cloudy
11:15 PM79.0 °F72.7 °F81 %30.00 in10.0 miSE (130°)8.1 mphMostly Cloudy
11:35 PM78.8 °F72.9 °F82 %30.00 in10.0 miCalmScattered Clouds
11:55 PM77.2 °F74.7 °F92 %30.00 in10.0 miCalmClear
Hourly data recorded from KBMT, located miles away from Evadale, Texas







STORIES FROM OUR PARTNERS